FW1075 Weather Reports


time (UTC)temp
F
wind
direction
speed
knots
gust
knots
rain 1hr
in
rain 24hr
in
rain mn
in
humidity
%
barometer
mb
20260903182143 89 30 2.6 6.1 0.00 0.42 0.18 66 1011.2
20260903181148 89 279 3.5 6.1 0.00 0.42 0.18 67 1011.4
20260903180123 89 263 3.5 7.0 0.00 0.42 0.18 67 1011.4
20260903175142 89 309 3.5 7.8 0.00 0.42 0.18 67 1011.4
20260903174145 88 315 2.6 5.2 0.00 0.42 0.18 70 1011.6
20260903173121 87 315 3.5 6.1 0.00 0.42 0.18 70 1011.8
20260903172142 87 274 3.5 7.0 0.00 0.42 0.18 71 1012.0
20260903171121 87 277 2.6 6.1 0.00 0.42 0.18 71 1012.2
20260903170145 85 274 2.6 7.0 0.00 0.42 0.18 75 1012.2
20260903165121 85 266 2.6 7.8 0.00 0.42 0.18 75 1012.2
20260903164122 85 263 2.6 4.3 0.00 0.42 0.18 74 1012.2
20260903163122 86 252 2.6 4.3 0.00 0.42 0.18 73 1012.2
20260903162121 84 257 2.6 6.1 0.00 0.42 0.18 76 1012.2
20260903161123 84 257 2.6 7.0 0.00 0.42 0.18 78 1012.8
20260903160121 82 229 2.6 7.0 0.00 0.42 0.18 81 1012.8
20260903155142 82 252 4.3 8.7 0.00 0.42 0.18 79 1012.9
20260903154121 82 291 2.6 4.3 0.00 0.42 0.18 82 1012.7
20260903153123 81 257 2.6 7.8 0.00 0.42 0.18 83 1012.8
20260903152122 81 264 3.5 5.2 0.00 0.42 0.18 84 1012.8
20260903151143 81 251 3.5 7.0 0.00 0.42 0.18 83 1012.9
20260903150123 81 283 2.6 6.1 0.00 0.42 0.18 86 1012.9
20260903145121 79 313 2.6 6.1 0.00 0.42 0.18 89 1012.8
20260903144122 79 219 2.6 5.2 0.00 0.42 0.18 90 1012.7
20260903143124 78 256 3.5 7.8 0.00 0.42 0.18 90 1012.9
20260903142123 78 261 3.5 7.0 0.00 0.42 0.18 91 1012.7
20260903141122 78 237 3.5 7.8 0.00 0.42 0.18 92 1013.1
20260903140121 77 259 3.5 7.8 0.00 0.42 0.18 95 1013.1
20260903135121 75 252 2.6 4.3 0.00 0.42 0.18 99 1013.2
20260903134121 74 260 3.5 7.8 0.00 0.42 0.18 99 1013.4
20260903133126 73 254 2.6 5.2 0.00 0.42 0.18 99 1013.2
20260903132122 73 229 1.7 3.5 0.00 0.42 0.18 99 1013.5
20260903131122 71 245 2.6 4.3 0.00 0.42 0.18 99 1013.5
20260903130121 71 243 1.7 3.5 0.00 0.42 0.18 99 1013.5
20260903125124 71 246 1.7 3.5 0.00 0.42 0.18 99 1013.6
20260903124121 71 189 0.9 2.6 0.00 0.42 0.18 99 1013.6
20260903123122 71 202 0.9 2.6 0.00 0.42 0.18 99 1013.5
20260903122125 71 201 0.9 2.6 0.00 0.42 0.18 99 1014.0
20260903121142 71 241 0.9 2.6 0.00 0.42 0.18 99 1013.9
20260903120123 71 263 0.0 1.7 0.00 0.42 0.18 99 1013.9
20260903115128 71 270 0.0 0.0 0.00 0.42 0.18 99 1013.7
20260903114122 70 180 0.0 0.0 0.00 0.42 0.18 99 1013.8
20260903113121 70 45 0.0 0.0 0.00 0.42 0.18 99 1013.5
20260903112124 70 338 0.0 0.0 0.00 0.42 0.18 99 1013.2
20260903111122 70 270 0.0 0.0 0.00 0.42 0.18 99 1013.6
20260903110121 70 248 0.0 0.0 0.00 0.42 0.18 99 1013.6
20260903105122 70 23 0.0 0.0 0.00 0.42 0.18 99 1013.8
20260903104143 70 339 0.9 4.3 0.00 0.42 0.18 99 1013.7
20260903103121 70 266 1.7 3.5 0.00 0.42 0.18 99 1013.5
20260903102123 70 248 2.6 3.5 0.00 0.42 0.18 99 1013.2
20260903101122 70 258 1.7 3.5 0.00 0.42 0.18 99 1013.1
20260903100143 70 295 1.7 3.5 0.00 0.42 0.18 99 1013.1
20260903095126 70 304 0.9 3.5 0.00 0.43 0.18 99 1013.5
20260903094121 70 233 1.7 3.5 0.00 0.43 0.18 99 1013.2
20260903093123 70 258 2.6 7.0 0.00 0.43 0.18 99 1013.1
20260903092121 70 262 2.6 4.3 0.00 0.43 0.18 99 1012.9
20260903091121 70 253 2.6 5.2 0.00 0.43 0.18 99 1012.9
20260903090142 70 256 1.7 4.3 0.01 0.43 0.18 99 1012.9
20260903085122 70 214 1.7 3.5 0.01 0.43 0.18 99 1013.1
20260903084123 70 240 0.9 3.5 0.01 0.43 0.18 99 1013.7
20260903083144 69 248 0.0 0.0 0.02 0.43 0.18 99 1014.0
20260903082121 69 315 0.0 0.0 0.02 0.43 0.18 99 1013.8
20260903081125 69 23 0.0 0.0 0.04 0.43 0.18 99 1013.6
20260903075122 69 23 0.0 0.0 0.05 0.42 0.17 99 1013.8
20260903074121 69 135 0.0 1.7 0.06 0.42 0.17 99 1014.1
20260903073121 68 242 0.9 1.7 0.05 0.41 0.16 99 1014.2
20260903072122 68 236 0.9 2.6 0.05 0.41 0.16 99 1014.4
20260903071123 68 227 0.9 1.7 0.03 0.39 0.14 99 1014.6
20260903070122 68 231 0.9 2.6 0.03 0.38 0.13 99 1014.6
20260903065127 68 248 0.0 0.0 0.02 0.37 0.12 99 1014.6
20260903064122 68 270 0.0 0.0 0.02 0.36 0.11 99 1014.5
20260903063122 68 338 0.0 0.0 0.02 0.36 0.11 99 1014.4
20260903062122 68 233 0.0 1.7 0.04 0.36 0.11 99 1014.6
20260903061123 68 269 0.0 1.7 0.09 0.36 0.11 99 1014.4
20260903060142 68 177 0.9 1.7 0.09 0.35 0.10 99 1014.4
20260903055121 68 210 1.7 2.6 0.09 0.35 0.10 99 1014.8
20260903054121 68 116 0.9 1.7 0.09 0.34 0.09 99 1015.2
20260903053121 68 305 0.9 3.5 0.09 0.34 0.09 99 1016.2
20260903052122 68 288 2.6 6.1 0.07 0.32 0.07 99 1016.8
20260903051121 68 303 2.6 4.3 0.02 0.27 0.02 99 1016.1
20260903050122 68 287 0.9 2.6 0.01 0.26 0.01 99 1016.1
20260903045121 68 35 0.9 2.6 0.01 0.26 0.01 99 1016.2
20260903044143 69 113 0.0 1.7 0.00 0.25 0.00 99 1016.5
20260903043122 69 293 0.0 0.0 0.00 0.25 0.00 99 1016.2
20260903042142 69 203 0.0 0.0 0.00 0.25 0.00 99 1016.2
20260903041125 69 338 0.0 0.0 0.00 0.25 0.00 99 1016.4
20260903040121 69 270 0.0 0.0 0.00 0.25 0.00 99 1016.4
20260903035127 69 315 0.0 0.0 0.00 0.25 0.25 99 1016.5
20260903034121 69 105 0.9 1.7 0.00 0.25 0.25 99 1016.4
20260903033121 68 97 0.9 2.6 0.00 0.25 0.25 99 1016.1
20260903032123 68 95 0.9 2.6 0.00 0.25 0.25 99 1016.2
20260903031123 68 101 1.7 2.6 0.00 0.25 0.25 99 1016.2
20260903030121 68 106 2.6 3.5 0.00 0.25 0.25 99 1016.2
20260903025124 68 98 0.9 3.5 0.00 0.25 0.25 99 1016.6
20260903024122 68 90 0.0 0.0 0.00 0.25 0.25 99 1016.8
20260903023143 68 225 0.0 0.0 0.00 0.25 0.25 99 1016.8
20260903022123 68 69 0.9 1.7 0.00 0.25 0.25 99 1016.5
20260903021144 68 81 0.0 1.7 0.00 0.25 0.25 99 1016.4
20260903020121 68 113 0.0 0.0 0.00 0.25 0.25 99 1016.4
20260903015123 68 338 0.0 0.0 0.00 0.25 0.25 99 1016.9
20260903014121 68 164 0.9 3.5 0.00 0.25 0.25 99 1016.8
20260903013145 68 123 2.6 5.2 0.00 0.25 0.25 99 1016.9
20260903012125 68 104 1.7 2.6 0.00 0.25 0.25 99 1017.2
20260903011121 68 92 1.7 4.3 0.00 0.25 0.25 99 1017.4
20260903010122 68 106 1.7 3.5 0.00 0.25 0.25 99 1017.4
20260903005142 68 107 1.7 2.6 0.00 0.25 0.25 99 1017.8
20260903004142 68 70 1.7 3.5 0.00 0.25 0.25 99 1017.8
20260903003121 68 78 0.9 1.7 0.00 0.25 0.25 99 1017.5
20260903002142 68 118 0.9 2.6 0.00 0.25 0.25 99 1017.1
20260903001124 68 79 0.9 2.6 0.00 0.25 0.25 99 1016.8
20260903000121 68 109 1.7 3.5 0.00 0.25 0.25 99 1016.8
20260902235121 68 101 2.6 4.3 0.00 0.25 0.25 99 1016.8
20260902234121 68 110 1.7 4.3 0.00 0.25 0.25 99 1016.8
20260902233124 68 98 2.6 5.2 0.00 0.25 0.25 99 1016.6
20260902232122 68 113 2.6 4.3 0.00 0.25 0.25 99 1016.7
20260902231122 68 99 2.6 5.2 0.00 0.25 0.25 99 1017.0
20260902230123 69 103 2.6 4.3 0.00 0.25 0.25 99 1017.0
20260902225122 69 113 1.7 3.5 0.00 0.25 0.25 99 1017.2
20260902224123 69 93 2.6 5.2 0.00 0.25 0.25 99 1017.0
20260902223123 69 103 2.6 5.2 0.00 0.25 0.25 99 1017.8
20260902222123 69 91 2.6 3.5 0.00 0.25 0.25 99 1017.9
20260902221122 70 98 2.6 4.3 0.00 0.25 0.25 99 1018.0
20260902220124 70 110 1.7 3.5 0.00 0.25 0.25 99 1018.0
20260902215120 70 90 0.9 3.5 0.00 0.25 0.25 99 1018.0
20260902214143 70 97 1.7 3.5 0.00 0.25 0.25 99 1017.9
20260902213121 70 108 1.7 3.5 0.00 0.25 0.25 99 1017.8
20260902212120 70 125 2.6 4.3 0.00 0.25 0.25 99 1017.7
20260902211120 70 127 1.7 2.6 0.00 0.25 0.25 99 1017.5
20260902210120 70 127 2.6 4.3 0.00 0.25 0.25 99 1017.5
20260902205146 70 133 2.6 4.3 0.00 0.25 0.25 99 1017.4
20260902204121 69 112 2.6 3.5 0.18 0.25 0.25 99 1017.7
20260902203120 69 125 2.6 4.3 0.23 0.25 0.25 99 1017.9
20260902202120 69 135 2.6 4.3 0.24 0.25 0.25 99 1018.1
20260902201123 69 124 2.6 4.3 0.24 0.25 0.25 99 1017.9
20260902200122 69 125 1.7 2.6 0.24 0.25 0.25 99 1017.9
20260902195122 70 99 0.9 2.6 0.24 0.25 0.25 99 1018.2
20260902194121 71 302 0.0 1.7 0.06 0.07 0.07 98 1018.6
20260902193121 71 75 1.7 2.6 0.01 0.02 0.02 93 1018.2
20260902192144 73 94 1.7 2.6 0.00 0.01 0.01 90 1018.0
20260902191123 73 145 1.7 3.5 0.00 0.01 0.01 87 1017.9
20260902190121 74 114 2.6 6.1 0.00 0.01 0.01 84 1017.9
20260902185142 74 180 2.6 5.2 0.00 0.01 0.01 84 1018.0
20260902184121 74 113 3.5 7.8 0.00 0.01 0.01 84 1017.9
20260902183146 75 112 2.6 4.3 0.00 0.01 0.01 82 1017.9